Aérodrome :
LOGIN :

S'inscrire | Disclaimer

   EN    FR    IT 

 










Légende :    VFR   VFR Marginal   IFR   IFR Intensif   IFR Très Intensif
Visi : 
Plafond : 
>= 8 km
>= 3000ft
5 à 8 km
1000 à 3000 ft
1500m à 5 km
500 à 1000 ft
800 à 1500m
200 à 500 ft
< 800m
< 200 ft
Symboles :   Orages  Brouillard  Fortes neiges  Fortes précipitations  Vent > 20 kt
SIGMETs :   Divers  Orages  Givrage  Turbulence  Onde Orograph.  Cendres Volcan.







- Altitude de l'aérodrome : 26 ft
- Code IATA : BIA
- Voir les cartes d'approche


LFKB - Bastia

DERNIER METAR :
  • 211400Z AUTO 35010KT 320V020 CAVOK 15/04 Q1026 NOSIG

METARs EXPIRÉS :
  • 211330Z AUTO 34010KT CAVOK 15/05 Q1026 NOSIG
  • 211300Z AUTO 34009KT CAVOK 15/05 Q1027 NOSIG
  • 211230Z AUTO 34010KT 310V010 CAVOK 15/05 Q1027 NOSIG
  • 211200Z AUTO 35011KT CAVOK 15/05 Q1027 NOSIG
  • 211130Z AUTO 36012KT 320V050 CAVOK 15/04 Q1028 NOSIG

TAF TAF LFKB
Valide du 21 à 09h jusqu'au 22 à 09h UTC


210800Z 2109/2209 03012KT CAVOK TX17/2113Z TN09/2204Z
BECMG 2118/2121 30005KT
ATIS : +33 4 95 59 19 40
Pas de NOTAMs connus pour ce terrain.



MET'MAP, la Météo Aéronautique d'un coup d'oeil ! - Copyright ORBIFLY Décembre 2007 - Disclaimer

ORBIFLY MET'MAP TEAM :

Programmation & Développement : Alexandra Zaïnal
Conception & Développement : Baudouin d'Aumeries
Co-Programmation & Développement : Marc-Olivier Méhu
Soutien technique & logistique : Manuel Goepfert

Contact : metmap@orbifly.com




SOURCES & CREDITS :

   NOAA